Dewpoint
72 72 74 74 74 74 73 72 71 70 71 71 71 71 71 72 73 73 74 75 76 75 75 73 75 74 75 74 74 74 73 73 74 74 73 73 74 74 74 74 73 73 72
72 71 73 73 73 73 73 72 71 71 71 70 69 70 71 71 71 72 73 75 75 76 75 75 74 74 75 74 74 75 74 73 73 73 73 72 72 73 72 71 71 71 71
72 72 72 73 73 73 72 72 71 72 70 70 69 70 70 70 71 72 72 73 73 74 74 74 75 75 73 75 74 74 75 73 73 73 73 71 71 71 71 71 71 71 71
71 72 71 72 72 72 72 71 71 70 69 68 68 68 68 69 70 70 69 70 71 71 73 74 75 75 75 74 74 75 74 74 73 73 73 72 71 71 71 71 71 71 71
72 72 72 72 72 71 71 70 70 69 68 68 67 67 67 68 68 71 71 70 70 70 72 71 74 75 73 74 74 74 74 75 74 73 73 72 72 71 71 71 71 71 71
72 72 72 72 72 71 71 70 69 69 68 68 67 68 68 69 68 69 70 71 70 70 70 72 72 73 74 74 74 74 74 75 75 74 73 73 73 72 72 72 72 71 71
72 72 72 71 72 71 71 70 69 68 68 68 67 67 69 68 68 69 70 70 70 69 70 71 72 72 71 75 75 74 74 74 75 75 74 74 74 73 73 73 73 72 71
73 72 72 71 71 71 71 70 69 68 68 68 66 67 66 67 69 69 69 69 69 70 69 70 71 71 71 72 74 74 74 74 74 75 75 75 74 74 74 74 74 73 73
72 72 72 72 71 71 70 70 70 69 68 68 68 68 64 63 66 69 70 69 70 70 70 70 70 72 71 71 71 73 75 74 74 74 74 75 75 74 74 73 73 73 73
72 72 71 72 72 71 71 71 71 70 70 68 69 68 68 69 65 65 70 70 70 70 70 71 69 69 71 71 71 72 73 75 75 75 74 74 75 75 74 73 73 73 73
72 72 71 71 72 71 71 71 71 70 70 70 69 70 69 69 69 67 65 68 70 71 71 70 70 70 70 70 71 71 72 73 75 75 75 75 75 75 75 74 73 73 72
71 72 72 71 71 71 71 71 71 71 71 71 71 71 70 68 67 66 66 66 67 70 70 71 71 71 71 70 71 71 72 73 73 74 75 75 75 75 75 74 73 73 73
70 71 72 72 71 71 72 72 71 71 71 70 71 70 71 70 70 69 68 67 66 69 69 71 71 72 71 71 70 72 73 72 72 71 72 73 74 75 75 75 75 74 73
71 72 71 72 73 73 72 72 72 72 72 71 71 71 71 70 71 70 69 68 67 66 68 69 72 71 71 71 70 71 70 71 71 71 70 71 73 73 74 74 74 74 74
70 72 72 71 72 73 73 73 72 72 72 72 72 72 70 71 71 71 71 70 68 65 66 68 68 71 71 71 71 71 70 70 71 70 70 70 70 71 73 73 73 73 73
70 71 71 72 72 73 73 73 73 73 73 73 73 72 72 72 71 71 71 71 70 68 66 68 69 71 71 71 71 71 71 71 70 70 70 69 70 70 71 71 71 71 71
71 71 72 71 71 72 73 74 73 73 72 72 73 72 72 72 72 71 71 71 70 69 67 70 69 71 70 71 71 72 72 71 72 69 69 68 68 69 70 70 70 70 70
72 72 72 72 72 73 73 73 73 73 73 72 72 72 71 72 71 72 71 71 71 70 70 68 70 71 71 71 71 72 72 72 72 71 69 68 68 67 67 68 68 68 68
73 72 72 72 73 73 73 73 74 73 73 73 72 73 72 72 72 72 71 71 71 71 71 70 68 70 72 71 71 71 71 72 72 71 69 68 68 67 67 66 65 65 64
74 74 73 73 73 73 74 74 74 74 73 73 73 73 73 72 73 72 71 72 72 71 71 70 68 69 70 71 71 71 70 71 71 71 71 70 70 69 67 66 65 65 62
74 73 74 74 74 74 74 74 74 74 73 73 74 74 75 73 72 72 72 72 72 71 70 68 67 68 70 70 70 70 70 70 71 71 71 72 72 72 71 68 69 68 65
75 75 74 74 73 74 71 70 73 74 74 74 74 74 75 73 72 69 69 69 71 72 71 69 68 68 70 70 69 70 70 69 68 71 71 71 73 72 72 73 70 67 65
76 75 75 74 74 74 69 69 71 75 75 75 75 75 73 73 72 73 69 68 68 68 70 71 71 70 70 70 70 70 69 69 69 71 71 70 72 71 72 72 67 66 65
75 74 75 75 75 74 69 68 69 75 76 76 75 74 74 74 73 73 73 72 72 71 71 71 72 72 73 72 71 71 70 70 71 71 72 69 71 69 72 73 67 66 64
75 74 75 75 75 75 67 66 68 74 75 75 75 74 74 74 69 66 73 72 72 71 67 65 66 66 66 66 69 71 69 68 67 68 70 70 70 70 71 71 72 65 62
74 75 74 75 72 75 66 64 68 75 75 74 75 75 68 71 65 63 72 73 71 71 72 73 72 69 66 68 65 71 71 69 67 68 70 69 70 70 68 70 70 71 72
Lifted_Index
-3 -3 -4 -4 -4 -4 -4 -3 -2 -1 -1 -1 -1 -2 -2 -2 -2 -3 -4 -5 -5 -6 -6 -6 -6 -6 -6 -6 -7 -6 -6 -6 -6 -5 -5 -4 -4 -5 -4 -4 -4 -4 -4
-3 -3 -3 -3 -3 -3 -3 -2 -2 -1 -1 -1 -1 -1 -1 -1 -2 -2 -3 -4 -5 -5 -6 -6 -6 -6 -6 -6 -7 -7 -6 -5 -5 -5 -5 -4 -4 -4 -3 -3 -3 -3 -3
-2 -2 -2 -3 -3 -2 -2 -2 -2 -1 -1 -0 -0 -0 -0 -0 -1 -1 -2 -3 -4 -4 -5 -5 -6 -6 -6 -6 -6 -6 -6 -5 -5 -5 -4 -4 -3 -3 -3 -2 -2 -2 -3
-3 -2 -2 -2 -2 -2 -2 -1 -1 -1 -1 -0 0 1 1 1 0 -1 -1 -1 -2 -3 -4 -4 -5 -6 -6 -6 -6 -6 -6 -6 -5 -5 -4 -4 -3 -2 -2 -2 -2 -2 -2
-3 -3 -2 -2 -2 -2 -1 -1 -1 -1 -1 -1 -0 0 1 1 1 0 -0 -0 -0 -1 -2 -3 -4 -5 -5 -6 -6 -6 -6 -6 -6 -5 -5 -4 -3 -3 -2 -2 -2 -2 -2
-3 -3 -3 -2 -2 -2 -1 -1 -1 -1 -1 -1 -1 -0 -0 0 0 0 0 0 0 -0 -1 -2 -3 -4 -5 -5 -6 -6 -6 -6 -6 -6 -5 -5 -4 -4 -3 -3 -3 -2 -2
-3 -3 -3 -2 -2 -2 -2 -1 -1 -1 -1 -1 -1 -1 -1 -0 -0 0 0 0 0 0 0 -1 -2 -2 -3 -4 -5 -5 -6 -6 -6 -6 -6 -5 -5 -4 -4 -4 -3 -2 -2
-4 -3 -3 -3 -3 -2 -2 -2 -1 -1 -1 -1 -1 -1 -1 -0 -0 -0 -0 0 -0 0 0 -0 -1 -1 -2 -3 -4 -5 -5 -6 -6 -6 -6 -6 -5 -5 -4 -4 -4 -3 -3
-4 -4 -3 -3 -3 -2 -2 -2 -2 -1 -1 -1 -1 -1 -1 -0 -0 -0 -0 -0 -0 -0 -0 -0 -0 -1 -1 -2 -2 -4 -5 -5 -6 -6 -6 -6 -6 -5 -4 -4 -4 -3 -3
-4 -4 -3 -3 -3 -2 -2 -2 -2 -2 -1 -1 -1 -1 -1 -1 -0 -0 -1 -1 -1 -1 -1 -0 -0 -0 -0 -1 -1 -2 -4 -5 -5 -6 -6 -6 -6 -5 -5 -4 -4 -3 -3
-4 -4 -3 -3 -3 -2 -2 -2 -2 -2 -2 -2 -2 -1 -1 -1 -1 -1 -1 -1 -1 -1 -1 -1 -0 -0 -0 -0 -1 -1 -3 -4 -5 -5 -6 -5 -5 -5 -5 -4 -4 -3 -3
-3 -3 -3 -3 -3 -3 -2 -2 -2 -2 -2 -2 -2 -2 -2 -2 -2 -1 -1 -1 -1 -1 -1 -1 -1 -0 -0 -0 -0 -1 -2 -3 -4 -4 -5 -5 -5 -5 -5 -4 -4 -3 -3
-3 -3 -3 -3 -3 -3 -3 -3 -3 -3 -3 -3 -3 -2 -2 -2 -2 -2 -2 -1 -1 -1 -1 -1 -1 -1 -1 -0 -1 -1 -2 -2 -3 -3 -4 -4 -5 -5 -5 -4 -4 -4 -3
-3 -3 -3 -3 -4 -4 -4 -4 -3 -3 -3 -3 -3 -3 -3 -3 -3 -2 -2 -2 -2 -1 -1 -1 -1 -1 -1 -1 -1 -1 -2 -2 -2 -2 -2 -3 -4 -4 -4 -4 -4 -4 -4
-3 -3 -3 -3 -4 -4 -4 -4 -4 -4 -3 -3 -3 -4 -4 -4 -3 -3 -3 -3 -2 -2 -2 -2 -1 -1 -1 -1 -1 -1 -1 -1 -1 -2 -2 -2 -3 -3 -3 -3 -3 -3 -3
-4 -4 -4 -4 -4 -4 -5 -5 -5 -4 -4 -4 -4 -4 -4 -4 -4 -4 -4 -4 -3 -3 -2 -2 -2 -2 -1 -1 -1 -1 -1 -1 -1 -1 -1 -1 -1 -1 -2 -2 -2 -2 -2
-5 -5 -4 -4 -4 -4 -5 -5 -5 -5 -5 -5 -5 -5 -5 -5 -5 -5 -4 -4 -4 -3 -3 -2 -2 -2 -2 -1 -1 -1 -1 -1 -1 -1 -1 -1 -1 -1 -1 -1 -1 -1 -1
-5 -5 -5 -5 -5 -5 -6 -6 -6 -6 -6 -5 -5 -5 -5 -5 -5 -5 -5 -4 -4 -4 -4 -3 -3 -3 -2 -2 -2 -2 -2 -2 -1 -1 -1 -1 -1 -1 -0 -0 -0 -0 -0
-6 -6 -6 -6 -6 -6 -6 -6 -6 -6 -6 -5 -5 -5 -5 -5 -5 -5 -5 -5 -5 -5 -4 -4 -4 -3 -3 -2 -2 -2 -2 -2 -2 -2 -1 -1 -1 -1 -1 -1 -0 -0 -0
-6 -6 -6 -7 -7 -7 -7 -7 -7 -6 -6 -6 -6 -6 -6 -5 -5 -5 -5 -5 -5 -5 -5 -5 -4 -4 -3 -3 -3 -3 -3 -2 -2 -2 -2 -2 -2 -2 -2 -1 -1 -1 -1
-7 -7 -7 -7 -7 -7 -7 -7 -7 -7 -7 -6 -6 -6 -6 -6 -6 -6 -5 -5 -5 -5 -5 -4 -4 -4 -4 -3 -3 -3 -3 -2 -2 -2 -2 -2 -2 -2 -2 -2 -2 -2 -2
-8 -8 -8 -8 -8 -8 -7 -7 -7 -7 -7 -7 -7 -7 -7 -6 -6 -6 -5 -5 -5 -5 -5 -4 -4 -4 -4 -4 -4 -3 -3 -2 -2 -2 -2 -2 -2 -2 -2 -2 -2 -2 -2
-9 -8 -8 -8 -8 -8 -8 -8 -8 -8 -8 -8 -7 -7 -7 -6 -6 -6 -6 -5 -5 -5 -5 -4 -4 -4 -4 -4 -4 -3 -3 -2 -2 -2 -2 -2 -2 -2 -2 -2 -2 -2 -2
-9 -9 -9 -9 -9 -8 -8 -8 -8 -8 -8 -7 -7 -7 -6 -6 -6 -6 -5 -5 -5 -5 -4 -4 -4 -4 -4 -4 -4 -3 -2 -2 -2 -2 -2 -2 -2 -2 -2 -2 -2 -1 -1
-8 -9 -9 -9 -9 -9 -8 -8 -8 -8 -8 -7 -7 -7 -6 -6 -6 -5 -5 -5 -5 -5 -4 -4 -4 -4 -4 -4 -3 -3 -2 -2 -2 -2 -2 -2 -2 -2 -2 -2 -2 -1 -1
-8 -9 -10 -10 -9 -9 -8 -8 -8 -7 -7 -7 -7 -7 -6 -6 -5 -5 -5 -5 -4 -4 -4 -5 -4 -4 -4 -4 -3 -3 -3 -2 -2 -1 -1 -1 -2 -2 -2 -2 -2 -1 -2